| time (UTC) | temp C | wind direction | speed KPH | gust KPH | rain 1hr cm | rain 24hr cm | rain mn cm | humidity % | barometer mb |
| 20260504003052 | 17 | 169 | 4.8 | 12.9 | 0.00 | 0.00 | 0.00 | 48 | 1016.7 |
| 20260504002545 | 17 | 173 | 6.4 | 12.9 | 0.00 | 0.00 | 0.00 | 47 | 1016.6 |
| 20260504002046 | 17 | 191 | 4.8 | 11.3 | 0.00 | 0.00 | 0.00 | 47 | 1016.6 |
| 20260504001600 | 18 | 152 | 4.8 | 11.3 | 0.00 | 0.00 | 0.00 | 47 | 1016.5 |
| 20260504001047 | 18 | 184 | 3.2 | 11.3 | 0.00 | 0.00 | 0.00 | 46 | 1016.6 |
| 20260504000547 | 18 | 152 | 3.2 | 11.3 | 0.00 | 0.00 | 0.00 | 46 | 1016.8 |
| 20260504000057 | 18 | 159 | 3.2 | 9.7 | 0.00 | 0.00 | 0.00 | 46 | 1016.7 |
| 20260503235549 | 18 | 117 | 4.8 | 9.7 | 0.00 | 0.00 | 0.00 | 46 | 1016.7 |
| 20260503235046 | 17 | 151 | 1.6 | 9.7 | 0.00 | 0.00 | 0.00 | 47 | 1016.7 |
| 20260503234551 | 18 | 154 | 3.2 | 9.7 | 0.00 | 0.00 | 0.00 | 46 | 1016.8 |
| 20260503234046 | 18 | 192 | 4.8 | 9.7 | 0.00 | 0.00 | 0.00 | 46 | 1016.9 |
| 20260503233546 | 18 | 205 | 3.2 | 12.9 | 0.00 | 0.00 | 0.00 | 46 | 1016.9 |
| 20260503233059 | 18 | 192 | 6.4 | 14.5 | 0.00 | 0.00 | 0.00 | 46 | 1017.0 |
| 20260503232545 | 18 | 193 | 8.0 | 14.5 | 0.00 | 0.00 | 0.00 | 45 | 1016.8 |
| 20260503232045 | 18 | 190 | 8.0 | 14.5 | 0.00 | 0.00 | 0.00 | 45 | 1016.8 |
| 20260503231554 | 18 | 186 | 6.4 | 12.9 | 0.00 | 0.00 | 0.00 | 46 | 1016.8 |
| 20260503231043 | 18 | 198 | 6.4 | 16.1 | 0.00 | 0.00 | 0.00 | 46 | 1017.0 |
| 20260503230546 | 18 | 208 | 8.0 | 17.7 | 0.00 | 0.00 | 0.00 | 46 | 1016.8 |
| 20260503230056 | 18 | 196 | 9.7 | 17.7 | 0.00 | 0.00 | 0.00 | 46 | 1017.0 |
| 20260503225546 | 18 | 186 | 9.7 | 20.9 | 0.00 | 0.00 | 0.00 | 46 | 1016.9 |
| 20260503225043 | 18 | 193 | 11.3 | 20.9 | 0.00 | 0.00 | 0.00 | 46 | 1016.9 |
| 20260503224550 | 17 | 192 | 11.3 | 19.3 | 0.00 | 0.00 | 0.00 | 47 | 1016.9 |
| 20260503224043 | 18 | 196 | 11.3 | 19.3 | 0.00 | 0.00 | 0.00 | 46 | 1016.9 |
| 20260503223543 | 18 | 198 | 11.3 | 19.3 | 0.00 | 0.00 | 0.00 | 46 | 1017.0 |
| 20260503223051 | 18 | 173 | 11.3 | 19.3 | 0.00 | 0.00 | 0.00 | 46 | 1016.9 |
| 20260503222542 | 17 | 182 | 11.3 | 19.3 | 0.00 | 0.00 | 0.00 | 46 | 1016.7 |
| 20260503222045 | 17 | 186 | 9.7 | 16.1 | 0.00 | 0.00 | 0.00 | 46 | 1016.8 |
| 20260503221559 | 17 | 191 | 9.7 | 17.7 | 0.00 | 0.00 | 0.00 | 46 | 1017.0 |
| 20260503221043 | 17 | 175 | 9.7 | 17.7 | 0.00 | 0.00 | 0.00 | 45 | 1016.9 |
| 20260503220543 | 17 | 175 | 9.7 | 16.1 | 0.00 | 0.00 | 0.00 | 45 | 1017.0 |
| 20260503220103 | 17 | 176 | 8.0 | 17.7 | 0.00 | 0.00 | 0.00 | 46 | 1017.1 |
| 20260503215543 | 17 | 177 | 9.7 | 17.7 | 0.00 | 0.00 | 0.00 | 46 | 1017.0 |
| 20260503215042 | 17 | 180 | 6.4 | 16.1 | 0.00 | 0.00 | 0.00 | 45 | 1017.0 |
| 20260503214554 | 17 | 193 | 6.4 | 16.1 | 0.00 | 0.00 | 0.00 | 44 | 1017.0 |
| 20260503214042 | 17 | 171 | 8.0 | 14.5 | 0.00 | 0.00 | 0.00 | 43 | 1017.1 |
| 20260503213545 | 17 | 177 | 6.4 | 14.5 | 0.00 | 0.00 | 0.00 | 43 | 1017.0 |
| 20260503213054 | 17 | 182 | 8.0 | 14.5 | 0.00 | 0.00 | 0.00 | 43 | 1017.0 |
| 20260503212542 | 17 | 167 | 6.4 | 16.1 | 0.00 | 0.00 | 0.00 | 43 | 1016.8 |
| 20260503212042 | 17 | 202 | 9.7 | 17.7 | 0.00 | 0.00 | 0.00 | 43 | 1017.0 |
| 20260503211557 | 17 | 175 | 8.0 | 17.7 | 0.00 | 0.00 | 0.00 | 43 | 1017.0 |
| 20260503211042 | 17 | 174 | 8.0 | 16.1 | 0.00 | 0.00 | 0.00 | 43 | 1016.8 |
| 20260503210542 | 17 | 212 | 8.0 | 16.1 | 0.00 | 0.00 | 0.00 | 43 | 1016.8 |
| 20260503210057 | 17 | 181 | 6.4 | 16.1 | 0.00 | 0.00 | 0.00 | 43 | 1016.9 |
| 20260503205543 | 17 | 172 | 6.4 | 14.5 | 0.00 | 0.00 | 0.00 | 43 | 1016.8 |
| 20260503205043 | 17 | 188 | 8.0 | 16.1 | 0.00 | 0.00 | 0.00 | 43 | 1017.0 |
| 20260503204602 | 17 | 194 | 8.0 | 16.1 | 0.00 | 0.00 | 0.00 | 43 | 1016.9 |
| 20260503204044 | 17 | 179 | 6.4 | 16.1 | 0.00 | 0.00 | 0.00 | 43 | 1016.8 |
| 20260503203542 | 17 | 169 | 8.0 | 14.5 | 0.00 | 0.00 | 0.00 | 43 | 1016.9 |
| 20260503203100 | 17 | 158 | 6.4 | 12.9 | 0.00 | 0.00 | 0.00 | 43 | 1016.9 |
| 20260503202542 | 17 | 184 | 6.4 | 12.9 | 0.00 | 0.00 | 0.00 | 43 | 1017.0 |
| 20260503202041 | 17 | 194 | 6.4 | 14.5 | 0.00 | 0.00 | 0.00 | 44 | 1016.9 |
| 20260503201551 | 17 | 178 | 8.0 | 14.5 | 0.00 | 0.00 | 0.00 | 43 | 1017.0 |
| 20260503201042 | 17 | 165 | 6.4 | 14.5 | 0.00 | 0.00 | 0.00 | 44 | 1017.1 |
| 20260503200543 | 18 | 183 | 6.4 | 14.5 | 0.00 | 0.00 | 0.00 | 43 | 1017.0 |
| 20260503200057 | 18 | 162 | 8.0 | 17.7 | 0.00 | 0.00 | 0.00 | 43 | 1017.1 |
| 20260503195541 | 17 | 166 | 8.0 | 17.7 | 0.00 | 0.00 | 0.00 | 43 | 1017.0 |
| 20260503195042 | 17 | 191 | 9.7 | 16.1 | 0.00 | 0.00 | 0.00 | 44 | 1017.1 |
| 20260503194616 | 17 | 190 | 9.7 | 16.1 | 0.00 | 0.00 | 0.00 | 44 | 1017.1 |
| 20260503194043 | 17 | 193 | 9.7 | 16.1 | 0.00 | 0.00 | 0.00 | 45 | 1017.1 |
| 20260503193546 | 18 | 197 | 11.3 | 16.1 | 0.00 | 0.00 | 0.00 | 44 | 1017.2 |
| 20260503193051 | 18 | 183 | 6.4 | 14.5 | 0.00 | 0.00 | 0.00 | 44 | 1017.1 |
| 20260503192545 | 17 | 171 | 6.4 | 14.5 | 0.00 | 0.00 | 0.00 | 44 | 1017.0 |
| 20260503192045 | 18 | 194 | 8.0 | 16.1 | 0.00 | 0.00 | 0.00 | 44 | 1017.0 |
| 20260503191602 | 18 | 197 | 9.7 | 16.1 | 0.00 | 0.00 | 0.00 | 45 | 1017.0 |
| 20260503191045 | 18 | 188 | 8.0 | 14.5 | 0.00 | 0.00 | 0.00 | 44 | 1017.0 |
| 20260503190546 | 18 | 175 | 6.4 | 14.5 | 0.00 | 0.00 | 0.00 | 43 | 1016.9 |
| 20260503190101 | 17 | 182 | 8.0 | 14.5 | 0.00 | 0.00 | 0.00 | 44 | 1017.0 |
| 20260503185545 | 17 | 199 | 8.0 | 14.5 | 0.00 | 0.00 | 0.00 | 44 | 1017.0 |
| 20260503185045 | 17 | 196 | 8.0 | 14.5 | 0.00 | 0.00 | 0.00 | 44 | 1016.9 |
| 20260503184555 | 17 | 198 | 9.7 | 14.5 | 0.00 | 0.00 | 0.00 | 44 | 1016.9 |
| 20260503184044 | 17 | 193 | 8.0 | 14.5 | 0.00 | 0.00 | 0.00 | 43 | 1016.8 |
| 20260503183544 | 17 | 183 | 8.0 | 14.5 | 0.00 | 0.00 | 0.00 | 44 | 1016.8 |
| 20260503183105 | 17 | 195 | 8.0 | 11.3 | 0.00 | 0.00 | 0.00 | 43 | 1016.8 |
| 20260503182545 | 18 | 179 | 6.4 | 11.3 | 0.00 | 0.00 | 0.00 | 44 | 1016.8 |
| 20260503182048 | 17 | 190 | 6.4 | 11.3 | 0.00 | 0.00 | 0.00 | 45 | 1016.8 |
| 20260503181550 | 17 | 189 | 4.8 | 11.3 | 0.00 | 0.00 | 0.00 | 46 | 1016.9 |
| 20260503181046 | 17 | 188 | 3.2 | 11.3 | 0.00 | 0.00 | 0.00 | 45 | 1016.7 |
| 20260503180546 | 17 | 188 | 4.8 | 11.3 | 0.00 | 0.00 | 0.00 | 44 | 1016.8 |
| 20260503180106 | 17 | 0 | 3.2 | 8.0 | 0.00 | 0.00 | 0.00 | 42 | 1016.7 |
| 20260503175543 | 17 | 188 | 1.6 | 6.4 | 0.00 | 0.00 | 0.00 | 44 | 1016.8 |
| 20260503175045 | 17 | 200 | 1.6 | 4.8 | 0.00 | 0.00 | 0.00 | 45 | 1016.7 |
| 20260503174552 | 17 | 0 | 0.0 | 3.2 | 0.00 | 0.00 | 0.00 | 49 | 1016.7 |
| 20260503174045 | 17 | 0 | 0.0 | 3.2 | 0.00 | 0.00 | 0.00 | 46 | 1016.7 |
| 20260503173545 | 17 | 0 | 0.0 | 4.8 | 0.00 | 0.00 | 0.00 | 48 | 1016.7 |
| 20260503173137 | 17 | 181 | 0.0 | 4.8 | 0.00 | 0.00 | 0.00 | 52 | 1016.7 |
| 20260503172544 | 17 | 0 | 0.0 | 6.4 | 0.00 | 0.00 | 0.00 | 53 | 1016.6 |
| 20260503172047 | 17 | 169 | 0.0 | 6.4 | 0.00 | 0.00 | 0.00 | 54 | 1016.7 |
| 20260503171553 | 17 | 0 | 0.0 | 4.8 | 0.00 | 0.00 | 0.00 | 53 | 1016.7 |
| 20260503171045 | 18 | 115 | 0.0 | 4.8 | 0.00 | 0.00 | 0.00 | 47 | 1016.8 |
| 20260503170546 | 18 | 115 | 0.0 | 4.8 | 0.00 | 0.00 | 0.00 | 42 | 1016.8 |
| 20260503150545 | 19 | 107 | 1.6 | 11.3 | 0.00 | 0.00 | 0.00 | 48 | 1017.1 |
| 20260503131045 | 21 | 82 | 1.6 | 8.0 | 0.00 | 0.00 | 0.00 | 42 | 1017.9 |
| 20260503130547 | 21 | 75 | 1.6 | 6.4 | 0.00 | 0.00 | 0.00 | 40 | 1017.9 |
| 20260503130108 | 21 | 84 | 1.6 | 6.4 | 0.00 | 0.00 | 0.00 | 40 | 1018.0 |
| 20260503120106 | 21 | 5 | 1.6 | 8.0 | 0.00 | 0.00 | 0.00 | 42 | 1018.7 |
| 20260503110547 | 20 | 53 | 1.6 | 6.4 | 0.00 | 0.00 | 0.00 | 39 | 1019.0 |
| 20260503081556 | 19 | 67 | 0.0 | 3.2 | 0.00 | 0.00 | 0.00 | 51 | 1019.8 |
| 20260503081043 | 20 | 59 | 0.0 | 3.2 | 0.00 | 0.00 | 0.00 | 52 | 1019.6 |
| 20260503080545 | 20 | 0 | 0.0 | 4.8 | 0.00 | 0.00 | 0.00 | 56 | 1019.6 |
| 20260503072545 | 18 | 0 | 0.0 | 6.4 | 0.00 | 0.00 | 0.00 | 43 | 1019.6 |
| 20260503072045 | 18 | 203 | 0.0 | 6.4 | 0.00 | 0.00 | 0.00 | 47 | 1019.6 |
| 20260503071550 | 18 | 225 | 0.0 | 6.4 | 0.00 | 0.00 | 0.00 | 45 | 1019.6 |
| 20260503071041 | 18 | 157 | 0.0 | 9.7 | 0.00 | 0.00 | 0.00 | 48 | 1019.7 |
| 20260503070545 | 17 | 200 | 1.6 | 9.7 | 0.00 | 0.00 | 0.00 | 48 | 1019.7 |
| 20260503055044 | 16 | 237 | 1.6 | 4.8 | 0.00 | 0.00 | 0.00 | 45 | 1019.3 |
| 20260503054550 | 16 | 243 | 0.0 | 4.8 | 0.00 | 0.00 | 0.00 | 47 | 1019.2 |
| 20260503054045 | 16 | 0 | 1.6 | 6.4 | 0.00 | 0.00 | 0.00 | 47 | 1019.3 |
| 20260503053545 | 16 | 239 | 1.6 | 6.4 | 0.00 | 0.00 | 0.00 | 47 | 1019.2 |
| 20260503053052 | 16 | 236 | 1.6 | 6.4 | 0.00 | 0.00 | 0.00 | 46 | 1019.3 |
| 20260503052545 | 16 | 249 | 1.6 | 6.4 | 0.00 | 0.00 | 0.00 | 46 | 1019.3 |
| 20260503052048 | 16 | 231 | 1.6 | 8.0 | 0.00 | 0.00 | 0.00 | 47 | 1019.2 |
| 20260503051551 | 16 | 251 | 3.2 | 8.0 | 0.00 | 0.00 | 0.00 | 47 | 1019.2 |
| 20260503051044 | 16 | 237 | 3.2 | 11.3 | 0.00 | 0.00 | 0.00 | 48 | 1019.2 |
| 20260503050544 | 15 | 249 | 4.8 | 11.3 | 0.00 | 0.00 | 0.00 | 50 | 1019.1 |
| 20260503050052 | 15 | 229 | 3.2 | 8.0 | 0.00 | 0.00 | 0.00 | 50 | 1019.1 |
| 20260503045546 | 15 | 232 | 3.2 | 8.0 | 0.00 | 0.00 | 0.00 | 50 | 1019.2 |
| 20260503045045 | 15 | 240 | 3.2 | 6.4 | 0.00 | 0.00 | 0.00 | 50 | 1019.1 |
| 20260503044551 | 15 | 242 | 1.6 | 8.0 | 0.00 | 0.00 | 0.00 | 50 | 1019.2 |
| 20260503044043 | 15 | 240 | 3.2 | 8.0 | 0.00 | 0.00 | 0.00 | 51 | 1019.2 |
| 20260503043545 | 15 | 242 | 3.2 | 8.0 | 0.00 | 0.00 | 0.00 | 51 | 1019.1 |
| 20260503043059 | 15 | 235 | 3.2 | 8.0 | 0.00 | 0.00 | 0.00 | 52 | 1019.1 |
| 20260503042545 | 15 | 237 | 1.6 | 4.8 | 0.00 | 0.00 | 0.00 | 52 | 1019.1 |
| 20260503042044 | 15 | 0 | 0.0 | 3.2 | 0.00 | 0.00 | 0.00 | 51 | 1019.1 |
| 20260503041549 | 15 | 38 | 0.0 | 3.2 | 0.00 | 0.00 | 0.00 | 51 | 1019.1 |
| 20260503041049 | 15 | 0 | 1.6 | 3.2 | 0.00 | 0.00 | 0.00 | 49 | 1019.0 |
| 20260503040544 | 16 | 0 | 0.0 | 3.2 | 0.00 | 0.00 | 0.00 | 49 | 1018.9 |
| 20260503040051 | 16 | 38 | 0.0 | 3.2 | 0.00 | 0.00 | 0.00 | 49 | 1018.9 |
| 20260503035544 | 16 | 0 | 0.0 | 1.6 | 0.00 | 0.00 | 0.00 | 49 | 1018.9 |
| 20260503035045 | 16 | 0 | 0.0 | 0.0 | 0.00 | 0.00 | 0.00 | 49 | 1018.9 |
| 20260503034552 | 16 | 0 | 0.0 | 0.0 | 0.00 | 0.00 | 0.00 | 49 | 1018.9 |
| 20260503034043 | 16 | 0 | 0.0 | 1.6 | 0.00 | 0.00 | 0.00 | 50 | 1019.0 |
| 20260503033544 | 16 | 0 | 0.0 | 3.2 | 0.00 | 0.00 | 0.00 | 50 | 1018.9 |
| 20260503033052 | 15 | 0 | 0.0 | 3.2 | 0.00 | 0.00 | 0.00 | 50 | 1019.0 |
| 20260503032543 | 15 | 38 | 0.0 | 3.2 | 0.00 | 0.00 | 0.00 | 51 | 1018.9 |
| 20260503032043 | 15 | 0 | 0.0 | 0.0 | 0.00 | 0.00 | 0.00 | 50 | 1019.0 |
| 20260503031607 | 16 | 0 | 0.0 | 0.0 | 0.00 | 0.00 | 0.00 | 49 | 1019.0 |
| 20260503031045 | 15 | 0 | 0.0 | 0.0 | 0.00 | 0.00 | 0.00 | 49 | 1019.1 |
| 20260503030543 | 15 | 0 | 0.0 | 1.6 | 0.00 | 0.00 | 0.00 | 49 | 1019.1 |
| 20260503030050 | 15 | 0 | 0.0 | 1.6 | 0.00 | 0.00 | 0.00 | 50 | 1018.9 |
| 20260503025543 | 15 | 0 | 0.0 | 3.2 | 0.00 | 0.00 | 0.00 | 49 | 1019.0 |
| 20260503025043 | 16 | 0 | 0.0 | 3.2 | 0.00 | 0.00 | 0.00 | 49 | 1019.1 |
| 20260503024548 | 16 | 38 | 0.0 | 3.2 | 0.00 | 0.00 | 0.00 | 50 | 1019.1 |
| 20260503024043 | 16 | 0 | 0.0 | 3.2 | 0.00 | 0.00 | 0.00 | 50 | 1019.0 |
| 20260503023542 | 16 | 38 | 0.0 | 3.2 | 0.00 | 0.00 | 0.00 | 51 | 1019.0 |
| 20260503023058 | 16 | 0 | 1.6 | 3.2 | 0.00 | 0.00 | 0.00 | 50 | 1019.1 |
| 20260503022543 | 16 | 38 | 0.0 | 3.2 | 0.00 | 0.00 | 0.00 | 50 | 1019.2 |
| 20260503022043 | 16 | 0 | 0.0 | 1.6 | 0.00 | 0.00 | 0.00 | 51 | 1019.3 |
| 20260503021550 | 15 | 0 | 0.0 | 1.6 | 0.00 | 0.00 | 0.00 | 50 | 1019.4 |
| 20260503021044 | 15 | 0 | 0.0 | 1.6 | 0.00 | 0.00 | 0.00 | 52 | 1019.2 |
| 20260503020543 | 15 | 0 | 0.0 | 1.6 | 0.00 | 0.00 | 0.00 | 52 | 1019.2 |
| 20260503020100 | 15 | 317 | 0.0 | 1.6 | 0.00 | 0.00 | 0.00 | 53 | 1019.4 |
| 20260503015543 | 15 | 0 | 0.0 | 3.2 | 0.00 | 0.00 | 0.00 | 53 | 1019.4 |
| 20260503015042 | 15 | 0 | 0.0 | 3.2 | 0.00 | 0.00 | 0.00 | 54 | 1019.4 |
| 20260503014555 | 15 | 306 | 0.0 | 4.8 | 0.00 | 0.00 | 0.00 | 55 | 1019.3 |
| 20260503014042 | 14 | 306 | 1.6 | 4.8 | 0.00 | 0.00 | 0.00 | 56 | 1019.5 |
| 20260503013543 | 14 | 306 | 1.6 | 6.4 | 0.00 | 0.00 | 0.00 | 57 | 1019.5 |
| 20260503013050 | 13 | 0 | 1.6 | 6.4 | 0.00 | 0.00 | 0.00 | 57 | 1019.5 |
| 20260503012543 | 13 | 296 | 1.6 | 4.8 | 0.00 | 0.00 | 0.00 | 57 | 1019.6 |
| 20260503012042 | 13 | 15 | 0.0 | 3.2 | 0.00 | 0.00 | 0.00 | 57 | 1019.6 |
| 20260503011605 | 14 | 0 | 0.0 | 1.6 | 0.00 | 0.00 | 0.00 | 57 | 1019.7 |
| 20260503011042 | 14 | 0 | 0.0 | 4.8 | 0.00 | 0.00 | 0.00 | 56 | 1019.7 |
| 20260503010544 | 14 | 0 | 0.0 | 6.4 | 0.00 | 0.00 | 0.00 | 56 | 1019.7 |
| 20260503010052 | 14 | 15 | 3.2 | 6.4 | 0.00 | 0.00 | 0.00 | 56 | 1019.7 |
| 20260503005542 | 14 | 26 | 3.2 | 6.4 | 0.00 | 0.00 | 0.00 | 55 | 1019.8 |
| 20260503005043 | 15 | 32 | 3.2 | 6.4 | 0.00 | 0.00 | 0.00 | 55 | 1019.8 |
| 20260503004553 | 15 | 45 | 3.2 | 6.4 | 0.00 | 0.00 | 0.00 | 55 | 1019.8 |
| 20260503004042 | 14 | 26 | 3.2 | 6.4 | 0.00 | 0.00 | 0.00 | 55 | 1020.0 |
| 20260503003543 | 14 | 28 | 3.2 | 6.4 | 0.00 | 0.00 | 0.00 | 56 | 1019.9 |